TimeEDT,TemperatureF,Dew PointF,Humidity,Sea Level PressureIn,VisibilityMPH,Wind Direction,Wind SpeedMPH,Gust SpeedMPH,PrecipitationIn,Events,Conditions,WindDirDegrees,DateUTC
12:53 AM,28.4,1.4,31,-9999,105.0,South,10.4,-,N/A,,Scattered Clouds,170,2012-10-09 04:53:00
1:51 AM,23.0,21.2,93,-9999,0.3,SSE,11.5,-,N/A,,Scattered Clouds,160,2012-10-09 05:51:00
2:47 AM,23.0,23.0,100,-9999,0.1,SE,13.8,-,N/A,Fog,Light Freezing Fog,130,2012-10-09 06:47:00
3:51 AM,23.0,23.0,100,-9999,0.1,ESE,17.3,-,N/A,Fog,Light Freezing Fog,120,2012-10-09 07:51:00
4:56 AM,24.8,24.8,100,-9999,0.1,SE,18.4,-,N/A,Fog,Light Freezing Fog,140,2012-10-09 08:56:00
5:48 AM,24.8,24.8,100,-9999,0.1,SE,16.1,-,N/A,Fog,Light Freezing Fog,140,2012-10-09 09:48:00
6:51 AM,24.8,24.8,100,-9999,0.0,SE,24.2,-,N/A,Fog,Light Freezing Fog,130,2012-10-09 10:51:00
7:53 AM,24.8,24.8,100,-9999,0.0,SE,27.6,-,N/A,Fog,Light Freezing Fog,130,2012-10-09 11:53:00
8:55 AM,24.8,24.8,100,-9999,0.0,ESE,25.3,31.1,N/A,Fog,Light Freezing Fog,120,2012-10-09 12:55:00
9:49 AM,26.6,26.6,100,-9999,0.0,SE,32.2,-,N/A,Fog,Light Freezing Fog,130,2012-10-09 13:49:00
10:54 AM,26.6,26.6,100,-9999,0.0,SE,25.3,-,N/A,Fog,Light Freezing Fog,140,2012-10-09 14:54:00
11:52 AM,26.6,26.6,100,-9999,0.0,ESE,19.6,-,N/A,Fog,Light Freezing Fog,120,2012-10-09 15:52:00
12:55 PM,26.6,26.6,100,-9999,0.0,SE,18.4,-,N/A,Fog,Light Freezing Fog,140,2012-10-09 16:55:00
1:53 PM,26.6,26.6,100,-9999,0.0,SE,19.6,-,N/A,Fog,Light Freezing Fog,140,2012-10-09 17:53:00
2:51 PM,28.4,28.4,100,-9999,0.0,SE,21.9,-,N/A,Fog,Light Freezing Fog,140,2012-10-09 18:51:00
3:50 PM,28.4,28.4,100,-9999,0.0,SE,20.7,-,N/A,Fog,Light Freezing Fog,140,2012-10-09 19:50:00
4:56 PM,28.4,28.4,100,-9999,0.0,SSE,18.4,-,N/A,Fog,Light Freezing Fog,150,2012-10-09 20:56:00
5:48 PM,28.4,28.4,100,-9999,0.0,SSE,19.6,-,N/A,Fog,Light Freezing Fog,150,2012-10-09 21:48:00
6:54 PM,30.2,30.2,100,-9999,0.0,SSE,17.3,-,N/A,Fog,Light Freezing Fog,150,2012-10-09 22:54:00
7:53 PM,32.0,23.0,69,-9999,70.0,SSE,12.7,-,N/A,,Partly Cloudy,150,2012-10-09 23:53:00
8:57 PM,33.8,26.6,75,-9999,75.0,SSE,13.8,-,N/A,,Partly Cloudy,150,2012-10-10 00:57:00
9:50 PM,33.8,32.0,93,-9999,70.0,SW,16.1,-,N/A,,Scattered Clouds,220,2012-10-10 01:50:00
10:52 PM,30.2,30.2,100,-9999,0.1,WSW,17.3,-,N/A,Fog,Light Freezing Fog,240,2012-10-10 02:52:00
11:53 PM,30.2,30.2,100,-9999,0.1,WSW,15.0,-,N/A,Fog,Light Freezing Fog,250,2012-10-10 03:53:00